EA3BIN-13 Weather Reports


Display with metric or nautical units.
time (UTC)temp
F
wind
direction
speed
MPH
gust
MPH
rain 1hr
in
rain 24hr
in
rain mn
in
humidity
%
barometer
mb
20260902171037 111 0.0 0.0 0.00 0.00 0.00 21 1016.4
20260902170043 119 0.0 0.0 0.00 0.00 0.00 17 1015.7
20260902165036 123 0.0 0.0 0.00 0.00 0.00 16 1015.5
20260902164036 120 0.0 0.0 0.00 0.00 0.00 16 1015.7
20260902163036 125 0.0 0.0 0.00 0.00 0.00 15 1015.3
20260902162041 126 0.0 0.0 0.00 0.00 0.00 14 1015.5
20260902161036 126 0.0 0.0 0.00 0.00 0.00 14 1015.6
20260902160041 126 0.0 0.0 0.00 0.00 0.00 14 1015.5
20260902155036 126 0.0 0.0 0.00 0.00 0.00 14 1015.5
20260902154036 130 0.0 0.0 0.00 0.00 0.00 13 1015.3
20260902153036 125 0.0 0.0 0.00 0.00 0.00 14 1015.7
20260902152036 127 0.0 0.0 0.00 0.00 0.00 14 1015.6
20260902151036 124 0.0 0.0 0.00 0.00 0.00 15 1015.8
20260902150036 125 0.0 0.0 0.00 0.00 0.00 14 1016.0
20260902145036 124 0.0 0.0 0.00 0.00 0.00 15 1016.1
20260902144036 122 0.0 0.0 0.00 0.00 0.00 15 1016.1
20260902143036 120 0.0 0.0 0.00 0.00 0.00 16 1016.4
20260902142036 115 0.0 0.0 0.00 0.00 0.00 18 1017.0
20260902141036 96 0.0 0.0 0.00 0.00 0.00 30 1018.5
20260902140036 92 0.0 0.0 0.00 0.00 0.00 33 1018.9
20260902135036 93 0.0 0.0 0.00 0.00 0.00 35 1019.0
20260902134036 94 0.0 0.0 0.00 0.00 0.00 31 1018.9
20260902133036 93 0.0 0.0 0.00 0.00 0.00 31 1019.0
20260902132036 91 0.0 0.0 0.00 0.00 0.00 36 1019.3
20260902131036 92 0.0 0.0 0.00 0.00 0.00 32 1019.1
20260902130036 92 0.0 0.0 0.00 0.00 0.00 35 1019.4
20260902125041 92 0.0 0.0 0.00 0.00 0.00 31 1019.4
20260902124036 92 0.0 0.0 0.00 0.00 0.00 33 1019.4
20260902123036 92 0.0 0.0 0.00 0.00 0.00 34 1019.4
20260902122036 91 0.0 0.0 0.00 0.00 0.00 33 1019.5
20260902121036 92 0.0 0.0 0.00 0.00 0.00 34 1019.5
20260902120036 92 0.0 0.0 0.00 0.00 0.00 32 1019.2
20260902115036 91 0.0 0.0 0.00 0.00 0.00 37 1019.4
20260902114036 91 0.0 0.0 0.00 0.00 0.00 37 1019.5
20260902113036 91 0.0 0.0 0.00 0.00 0.00 37 1019.4
20260902112036 91 0.0 0.0 0.00 0.00 0.00 36 1019.6
20260902111036 89 0.0 0.0 0.00 0.00 0.00 38 1019.8
20260902110036 90 0.0 0.0 0.00 0.00 0.00 38 1019.8
20260902105036 89 0.0 0.0 0.00 0.00 0.00 39 1019.8
20260902104036 89 0.0 0.0 0.00 0.00 0.00 42 1020.0
20260902103036 87 0.0 0.0 0.00 0.00 0.00 47 1020.2
20260902102036 86 0.0 0.0 0.00 0.00 0.00 50 1020.2
20260902101036 86 0.0 0.0 0.00 0.00 0.00 55 1020.4
20260902100036 85 0.0 0.0 0.00 0.00 0.00 57 1020.4
20260902095036 84 0.0 0.0 0.00 0.00 0.00 60 1020.5
20260902094036 83 0.0 0.0 0.00 0.00 0.00 63 1020.6
20260902093036 82 0.0 0.0 0.00 0.00 0.00 66 1020.7
20260902092036 81 0.0 0.0 0.00 0.00 0.00 73 1020.7
20260902091042 80 0.0 0.0 0.00 0.00 0.00 80 1020.9
20260902090041 80 0.0 0.0 0.00 0.00 0.00 82 1020.9
20260902085041 78 0.0 0.0 0.00 0.00 0.00 88 1021.0
20260902084036 77 0.0 0.0 0.00 0.00 0.00 91 1021.1
20260902083036 76 0.0 0.0 0.00 0.00 0.00 97 1021.0
20260902082036 75 0.0 0.0 0.00 0.00 0.00 10 1021.1
20260902081036 75 0.0 0.0 0.00 0.00 0.00 10 1021.1
20260902080036 74 0.0 0.0 0.00 0.00 0.00 10 1021.1
20260902075036 73 0.0 0.0 0.00 0.00 0.00 10 1021.2
20260902074047 72 0.0 0.0 0.00 0.00 0.00 10 1021.3
20260902073036 71 0.0 0.0 0.00 0.00 0.00 10 1021.3
20260902072047 70 0.0 0.0 0.00 0.00 0.00 10 1021.4
20260902071036 69 0.0 0.0 0.00 0.00 0.00 10 1021.5
20260902070036 68 0.0 0.0 0.00 0.00 0.00 10 1021.5
20260902065036 68 0.0 0.0 0.00 0.00 0.00 10 1021.5
20260902064036 67 0.0 0.0 0.00 0.00 0.00 10 1021.4
20260902063036 68 0.0 0.0 0.00 0.00 0.00 10 1021.2
20260902062041 68 0.0 0.0 0.00 0.00 0.00 10 1021.0
20260902061041 68 0.0 0.0 0.00 0.00 0.00 10 1021.0
20260902060036 67 0.0 0.0 0.00 0.00 0.00 10 1021.0
20260902055036 66 0.0 0.0 0.00 0.00 0.00 10 1021.1
20260902054036 66 0.0 0.0 0.00 0.00 0.00 10 1021.1
20260902053036 65 0.0 0.0 0.00 0.00 0.00 10 1021.1
20260902052036 65 0.0 0.0 0.00 0.00 0.00 10 1021.1
20260902051036 65 0.0 0.0 0.00 0.00 0.00 10 1021.0
20260902050036 65 0.0 0.0 0.00 0.00 0.00 10 1020.9
20260902045041 65 0.0 0.0 0.00 0.00 0.00 10 1020.8
20260902044036 65 0.0 0.0 0.00 0.00 0.00 10 1020.7
20260902043036 65 0.0 0.0 0.00 0.00 0.00 10 1020.8
20260902042036 65 0.0 0.0 0.00 0.00 0.00 10 1020.7
20260902041036 66 0.0 0.0 0.00 0.00 0.00 10 1020.7
20260902040046 66 0.0 0.0 0.00 0.00 0.00 10 1020.7
20260902035036 67 0.0 0.0 0.00 0.00 0.00 10 1020.6
20260902034036 67 0.0 0.0 0.00 0.00 0.00 10 1020.6
20260902033036 67 0.0 0.0 0.00 0.00 0.00 10 1020.8
20260902032036 66 0.0 0.0 0.00 0.00 0.00 10 1020.9
20260902031036 66 0.0 0.0 0.00 0.00 0.00 10 1020.8
20260902030037 67 0.0 0.0 0.00 0.00 0.00 10 1020.7
20260902025036 68 0.0 0.0 0.00 0.00 0.00 10 1020.5
20260902024036 67 0.0 0.0 0.00 0.00 0.00 10 1020.6
20260902023036 69 0.0 0.0 0.00 0.00 0.00 10 1020.5
20260902022036 68 0.0 0.0 0.00 0.00 0.00 10 1020.7
20260902021041 67 0.0 0.0 0.00 0.00 0.00 10 1020.8
20260902020036 68 0.0 0.0 0.00 0.00 0.00 10 1020.7
20260902015036 68 0.0 0.0 0.00 0.00 0.00 10 1020.6
20260902014036 69 0.0 0.0 0.00 0.00 0.00 10 1020.5
20260902013036 69 0.0 0.0 0.00 0.00 0.00 10 1020.6
20260902012036 69 0.0 0.0 0.00 0.00 0.00 10 1020.7
20260902011036 71 0.0 0.0 0.00 0.00 0.00 10 1020.6
20260902010036 71 0.0 0.0 0.00 0.00 0.00 10 1020.5
20260902005036 71 0.0 0.0 0.00 0.00 0.00 10 1020.5
20260902004036 71 0.0 0.0 0.00 0.00 0.00 10 1020.7
20260902003036 72 0.0 0.0 0.00 0.00 0.00 10 1020.6
20260902002036 72 0.0 0.0 0.00 0.00 0.00 10 1020.5
20260902001036 72 0.0 0.0 0.00 0.00 0.00 10 1020.5
20260902000036 72 0.0 0.0 0.00 0.00 0.00 10 1020.6
20260901235036 72 0.0 0.0 0.00 0.00 0.00 10 1020.4
20260901234036 72 0.0 0.0 0.00 0.00 0.00 10 1020.3
20260901233036 72 0.0 0.0 0.00 0.00 0.00 10 1020.3
20260901232036 72 0.0 0.0 0.00 0.00 0.00 10 1020.4
20260901231036 72 0.0 0.0 0.00 0.00 0.00 10 1020.4
20260901230036 72 0.0 0.0 0.00 0.00 0.00 10 1020.4
20260901225036 72 0.0 0.0 0.00 0.00 0.00 10 1020.2
20260901224041 72 0.0 0.0 0.00 0.00 0.00 10 1020.0
20260901223041 72 0.0 0.0 0.00 0.00 0.00 10 1019.9
20260901222036 72 0.0 0.0 0.00 0.00 0.00 10 1019.8
20260901221036 72 0.0 0.0 0.00 0.00 0.00 10 1019.9
20260901220036 72 0.0 0.0 0.00 0.00 0.00 10 1019.9
20260901215036 72 0.0 0.0 0.00 0.00 0.00 10 1019.8
20260901214042 72 0.0 0.0 0.00 0.00 0.00 10 1019.8
20260901213036 72 0.0 0.0 0.00 0.00 0.00 10 1019.7
20260901212036 72 0.0 0.0 0.00 0.00 0.00 10 1019.6
20260901211041 72 0.0 0.0 0.00 0.00 0.00 10 1019.3
20260901210037 73 0.0 0.0 0.00 0.00 0.00 10 1019.2
20260901205036 73 0.0 0.0 0.00 0.00 0.00 10 1019.3
20260901204036 73 0.0 0.0 0.00 0.00 0.00 10 1019.1
20260901203036 73 0.0 0.0 0.00 0.00 0.00 10 1019.1
20260901202036 73 0.0 0.0 0.00 0.00 0.00 10 1018.8
20260901201041 74 0.0 0.0 0.00 0.00 0.00 10 1018.8
20260901200037 74 0.0 0.0 0.00 0.00 0.00 10 1018.8
20260901195041 75 0.0 0.0 0.00 0.00 0.00 99 1018.6
20260901194041 75 0.0 0.0 0.00 0.00 0.00 97 1018.4
20260901193042 75 0.0 0.0 0.00 0.00 0.00 96 1018.4
20260901192041 75 0.0 0.0 0.00 0.00 0.00 94 1018.4
20260901191036 76 0.0 0.0 0.00 0.00 0.00 92 1018.2
20260901190041 76 0.0 0.0 0.00 0.00 0.00 91 1018.0
20260901185036 76 0.0 0.0 0.00 0.00 0.00 90 1018.0
20260901184036 76 0.0 0.0 0.00 0.00 0.00 87 1017.7
20260901183036 77 0.0 0.0 0.00 0.00 0.00 84 1017.4
20260901182042 78 0.0 0.0 0.00 0.00 0.00 79 1017.5
20260901181036 79 0.0 0.0 0.00 0.00 0.00 76 1017.5
20260901180041 80 0.0 0.0 0.00 0.00 0.00 71 1017.5
20260901175036 81 0.0 0.0 0.00 0.00 0.00 68 1017.6
20260901174036 82 0.0 0.0 0.00 0.00 0.00 66 1017.7
20260901173036 83 0.0 0.0 0.00 0.00 0.00 61 1017.7
20260901172036 87 0.0 0.0 0.00 0.00 0.00 54 1017.4